Aberdeen / Amory, MS

9:58 PM CDT on July 20, 2017 (GMT -0500)
Aberdeen / Amory

Weather History for KM40 - April, 2012

Change the Weather History Date:

Monday, April 23, 2012

  Actual Average (KCBM) Record (KCBM)
Temperature  
Mean Temperature 52 °F -  
Max Temperature 64 °F 73 °F 87 °F (2009)
Min Temperature 39 °F 52 °F 44 °F (1998)
Degree Days  
Heating Degree Days 14    
Growing Degree Days 2 (Base 50)    
Moisture  
Dew Point 37 °F    
Average Humidity 56    
Maximum Humidity 61    
Minimum Humidity 51    
Precipitation  
Precipitation 0.00 in - - ()
Sea Level Pressure  
Sea Level Pressure 30.03 in    
Wind  
Wind Speed 9 mph ()    
Max Wind Speed 18 mph    
Max Gust Speed 33 mph    
Visibility 9.6 miles    
Events      
Averages and records for this station are not official NWS values.
T = Trace of Precipitation, MM = Missing Value Source: Averaged Metar Reports

Daily Weather History Graph

Daily Weather History Graph

Search for Another Location

Airport or City:

Trip Planner

Search our weather history database for the weather conditions in past years. The results will help you decide how hot, cold, wet, or windy it might be!

Date:

Astronomy

Apr. 23, 2012 Rise Set
Actual Time 6:13 AM CDT 7:31 PM CDT
Civil Twilight 5:46 AM CDT 7:57 PM CDT
Nautical Twilight 5:15 AM CDT 8:29 PM CDT
Astronomical Twilight 4:43 AM CDT 9:01 PM CDT
Moon 7:30 AM CDT (4/23) 9:54 PM CDT (4/23)
Length of Visible Light 14h 11m
Length of Day
13h 18m
Waxing Crescent, 5% of the Moon is Illuminated
Apr 23
Waxing Crescent
Apr 29
First Quarter
May 5
Full
May 12
Last Quarter
May 20
New

Hourly Weather History & Observations

Time (CDT) Temp. Windchill Dew Point Humidity Pressure Visibility Wind Dir Wind Speed Gust Speed Precip Events Conditions
12:15 AM 50.0 °F - 33.8 °F 54% 29.98 in 10.0 mi NNW 9.2 mph - N/A   Clear
1:15 AM 50.0 °F - 33.8 °F 54% 29.98 in 10.0 mi NNW 9.2 mph - N/A   Clear
1:35 AM 48.2 °F - 33.8 °F 58% 29.98 in 10.0 mi NNW 6.9 mph - N/A   Clear
1:55 AM 48.2 °F - 33.8 °F 58% 29.98 in 10.0 mi NNW 8.1 mph - N/A   Clear
2:15 AM 48.2 °F - 33.8 °F 58% 29.98 in 9.0 mi NNW 9.2 mph - N/A   Clear
2:35 AM 48.2 °F - 33.8 °F 58% 29.98 in 10.0 mi NNW 8.1 mph - N/A   Clear
2:55 AM 48.2 °F - 32.0 °F 54% 29.99 in 10.0 mi NNW 9.2 mph - N/A   Clear
3:15 AM 48.2 °F - 32.0 °F 54% 29.99 in 10.0 mi NNW 8.1 mph - N/A   Clear
3:35 AM 46.4 °F 42.4 °F 32.0 °F 57% 29.99 in 9.0 mi NNW 8.1 mph - N/A   Clear
3:55 AM 46.4 °F 43.5 °F 32.0 °F 57% 29.99 in 10.0 mi NW 5.8 mph - N/A   Clear
4:15 AM 46.4 °F 41.9 °F 32.0 °F 57% 30.00 in 10.0 mi NNW 9.2 mph - N/A   Clear
4:35 AM 46.4 °F 42.4 °F 32.0 °F 57% 30.01 in 9.0 mi NNW 8.1 mph - N/A   Clear
4:55 AM 46.4 °F 41.5 °F 32.0 °F 57% 30.01 in 10.0 mi NNW 10.4 mph 20.7 mph N/A   Clear
5:35 AM 46.4 °F 42.9 °F 32.0 °F 57% 30.01 in 9.0 mi NNW 6.9 mph - N/A   Clear
5:55 AM 44.6 °F 40.2 °F 32.0 °F 61% 30.02 in 10.0 mi NW 8.1 mph - N/A   Clear
6:15 AM 44.6 °F 40.7 °F 30.2 °F 57% 30.02 in 10.0 mi NNW 6.9 mph - N/A   Clear
6:35 AM 44.6 °F 40.2 °F 30.2 °F 57% 30.03 in 8.0 mi NNW 8.1 mph - N/A   Clear
7:15 AM 44.6 °F 39.2 °F 32.0 °F 61% 30.05 in 7.0 mi NNW 10.4 mph - N/A   Clear
7:35 AM 46.4 °F 42.4 °F 32.0 °F 57% 30.06 in 8.0 mi NNW 8.1 mph - N/A   Clear
7:55 AM 46.4 °F 40.1 °F 32.0 °F 57% 30.06 in 8.0 mi North 15.0 mph 32.2 mph N/A   Clear
8:15 AM 48.2 °F - 32.0 °F 54% 30.06 in 9.0 mi North 12.7 mph 33.4 mph N/A   Clear
8:35 AM 48.2 °F - 33.8 °F 58% 30.07 in 10.0 mi North 11.5 mph 23.0 mph N/A   Clear
8:55 AM 50.0 °F - 33.8 °F 54% 30.07 in 9.0 mi North 12.7 mph 21.9 mph N/A   Clear
9:15 AM 51.8 °F - 35.6 °F 54% 30.08 in 10.0 mi NNW 13.8 mph - N/A   Clear
9:35 AM 51.8 °F - 35.6 °F 54% 30.08 in 9.0 mi North 15.0 mph 18.4 mph N/A   Clear
9:55 AM 53.6 °F - 37.4 °F 54% 30.09 in 9.0 mi NNW 15.0 mph 19.6 mph N/A   Clear
10:15 AM 55.4 °F - 37.4 °F 51% 30.09 in 10.0 mi North 11.5 mph - N/A   Clear
10:35 AM 55.4 °F - 39.2 °F 54% 30.09 in 9.0 mi North 15.0 mph 25.3 mph N/A   Clear
10:55 AM 57.2 °F - 41.0 °F 55% 30.09 in 9.0 mi North 16.1 mph 19.6 mph N/A   Clear
11:15 AM 57.2 °F - 41.0 °F 55% 30.09 in 10.0 mi North 16.1 mph 21.9 mph N/A   Clear
11:35 AM 57.2 °F - 42.8 °F 59% 30.09 in 9.0 mi North 15.0 mph 27.6 mph N/A   Clear
11:55 AM 59.0 °F - 42.8 °F 55% 30.08 in 10.0 mi North 13.8 mph 26.5 mph N/A   Clear
12:15 PM 60.8 °F - 42.8 °F 52% 30.08 in 10.0 mi NNW 15.0 mph 21.9 mph N/A   Clear
12:35 PM 60.8 °F - 42.8 °F 52% 30.07 in 10.0 mi NNW 12.7 mph 29.9 mph N/A   Clear
12:55 PM 60.8 °F - 44.6 °F 55% 30.06 in 10.0 mi NNW 15.0 mph 24.2 mph N/A   Clear
1:15 PM 62.6 °F - 44.6 °F 52% 30.06 in 9.0 mi NNW 18.4 mph 24.2 mph N/A   Clear
1:35 PM 62.6 °F - 44.6 °F 52% 30.06 in 10.0 mi North 17.3 mph 20.7 mph N/A   Clear
1:55 PM 62.6 °F - 46.4 °F 55% 30.05 in 10.0 mi NNW 12.7 mph 21.9 mph N/A   Clear
2:15 PM 62.6 °F - 46.4 °F 55% 30.05 in 10.0 mi North 13.8 mph 25.3 mph N/A   Clear
2:35 PM 62.6 °F - 46.4 °F 55% 30.04 in 10.0 mi NNW 13.8 mph 17.3 mph N/A   Clear
2:55 PM 62.6 °F - 46.4 °F 55% 30.03 in 10.0 mi NNW 12.7 mph 23.0 mph N/A   Clear
3:15 PM 64.4 °F - 46.4 °F 52% 30.03 in 10.0 mi NNW 16.1 mph 21.9 mph N/A   Clear
3:35 PM 62.6 °F - 46.4 °F 55% 30.02 in 10.0 mi NNW 15.0 mph 23.0 mph N/A   Clear
3:55 PM 62.6 °F - 46.4 °F 55% 30.01 in 10.0 mi NW 13.8 mph 20.7 mph N/A   Clear
4:15 PM 62.6 °F - 46.4 °F 55% 30.01 in 10.0 mi NW 17.3 mph 23.0 mph N/A   Clear
4:35 PM 62.6 °F - 46.4 °F 55% 30.00 in 10.0 mi NNW 15.0 mph 25.3 mph N/A   Clear
4:55 PM 64.4 °F - 46.4 °F 52% 30.01 in 10.0 mi NW 12.7 mph 20.7 mph N/A   Clear
5:15 PM 62.6 °F - 46.4 °F 55% 30.00 in 9.0 mi NNW 12.7 mph 21.9 mph N/A   Clear
5:35 PM 62.6 °F - 46.4 °F 55% 30.01 in 9.0 mi NNW 15.0 mph 18.4 mph N/A   Clear
5:55 PM 62.6 °F - 46.4 °F 55% 30.00 in 10.0 mi WNW 12.7 mph 17.3 mph N/A   Clear
6:15 PM 60.8 °F - 44.6 °F 55% 30.00 in 10.0 mi NW 11.5 mph 19.6 mph N/A   Clear
6:35 PM 60.8 °F - 44.6 °F 55% 30.00 in 10.0 mi NW 9.2 mph - N/A   Clear
6:55 PM 59.0 °F - 42.8 °F 55% 30.00 in 10.0 mi NW 8.1 mph - N/A   Clear
7:15 PM 57.2 °F - 41.0 °F 55% 30.01 in 9.0 mi NW 5.8 mph - N/A   Clear
7:35 PM 55.4 °F - 39.2 °F 54% 30.01 in 10.0 mi NNW 6.9 mph - N/A   Clear
7:55 PM 53.6 °F - 37.4 °F 54% 30.01 in 10.0 mi NW 4.6 mph - N/A   Clear
8:15 PM 51.8 °F - 35.6 °F 54% 30.01 in 10.0 mi Calm Calm - N/A   Clear
8:35 PM 46.4 °F - 32.0 °F 57% 30.02 in 10.0 mi Calm Calm - N/A   Clear
8:55 PM 44.6 °F - 32.0 °F 61% 30.02 in 10.0 mi Calm Calm - N/A   Clear
9:15 PM 44.6 °F - 30.2 °F 57% 30.03 in 10.0 mi Calm Calm - N/A   Clear
9:35 PM 44.6 °F - 30.2 °F 57% 30.03 in 10.0 mi Calm Calm - N/A   Clear
9:55 PM 42.8 °F - 30.2 °F 61% 30.03 in 10.0 mi Calm Calm - N/A   Clear
10:15 PM 42.8 °F - 28.4 °F 57% 30.03 in 10.0 mi Calm Calm - N/A   Clear
10:35 PM 42.8 °F - 28.4 °F 57% 30.02 in 10.0 mi Calm Calm - N/A   Clear
10:55 PM 41.0 °F - 26.6 °F 57% 30.02 in 10.0 mi Calm Calm - N/A   Clear
11:15 PM 39.2 °F - 26.6 °F 61% 30.02 in 10.0 mi Calm Calm - N/A   Clear
11:35 PM 39.2 °F - 26.6 °F 61% 30.02 in 10.0 mi Calm Calm - N/A   Clear
11:55 PM 39.2 °F - 26.6 °F 61% 30.02 in 10.0 mi Calm Calm - N/A   Clear